Terminal Aerodrome Forecast
Issued by NWS Jackson, KY

Home | Current Version | Previous Version | Text Only | Print | Product List | Glossary On
Versions: 1 2 3 4 5 6 7 8 9 10 11 12 13 14 15 16 17 18 19 20 21 22 23 24 25 26 27
359
FTUS43 KJKL 111158 AAA
TAFJKL
TAF AMD
KJKL 111158Z 1112/1212 00000KT P6SM OVC029
     FM111600 VRB05KT P6SM SCT030
     FM120300 VRB03KT P6SM BKN110=

USA.gov is the U.S. government's official web portal to all federal, state and local government web resources and services.